| time (UTC) | temp F | wind direction | speed MPH | gust MPH | rain 1hr in | rain 24hr in | rain mn in | humidity % | barometer mb |
| 20260510170348 | 58 | 108 | 0.0 | 0.0 | 0.00 | 0.00 | 0.00 | 67 | 1012.4 |
| 20260510160414 | 54 | 123 | 0.0 | 0.0 | 0.00 | 0.00 | 0.00 | 69 | 1012.4 |
| 20260510150336 | 49 | 123 | 0.0 | 0.0 | 0.00 | 0.00 | 0.00 | 86 | 1013.5 |
| 20260510140407 | 42 | 123 | 0.0 | 0.0 | 0.00 | 0.00 | 0.00 | 92 | 1014.4 |
| 20260510130335 | 40 | 123 | 0.0 | 0.0 | 0.00 | 0.00 | 0.00 | 95 | 1013.8 |
| 20260510120350 | 40 | 123 | 0.0 | 0.0 | 0.00 | 0.00 | 0.00 | 93 | 1014.6 |
| 20260510110357 | 41 | 123 | 0.0 | 0.0 | 0.00 | 0.00 | 0.00 | 92 | 1014.6 |
| 20260510100352 | 41 | 123 | 0.0 | 0.0 | 0.00 | 0.00 | 0.00 | 91 | 1014.9 |
| 20260510090414 | 43 | 123 | 0.0 | 0.0 | 0.00 | 0.00 | 0.00 | 86 | 1015.0 |
| 20260510080331 | 44 | 123 | 0.0 | 0.0 | 0.00 | 0.00 | 0.00 | 83 | 1015.1 |
| 20260510070351 | 45 | 123 | 0.0 | 0.0 | 0.00 | 0.00 | 0.00 | 81 | 1015.3 |
| 20260510060348 | 46 | 123 | 0.0 | 0.0 | 0.00 | 0.00 | 0.03 | 79 | 1015.7 |
| 20260510050336 | 49 | 123 | 0.0 | 0.0 | 0.00 | 0.00 | 0.03 | 75 | 1015.1 |
| 20260510040338 | 52 | 123 | 0.0 | 0.0 | 0.00 | 0.00 | 0.03 | 69 | 1015.0 |
| 20260510030335 | 57 | 123 | 0.0 | 0.0 | 0.00 | 0.00 | 0.03 | 61 | 1013.7 |
| 20260510020346 | 61 | 123 | 0.0 | 0.0 | 0.00 | 0.00 | 0.03 | 49 | 1013.4 |
| 20260510010345 | 70 | 123 | 0.0 | 0.0 | 0.00 | 0.00 | 0.03 | 38 | 1013.6 |
| 20260510000348 | 71 | 177 | 0.0 | 0.0 | 0.00 | 0.00 | 0.03 | 25 | 1014.6 |
| 20260509230355 | 72 | 92 | 0.0 | 0.0 | 0.00 | 0.00 | 0.03 | 23 | 1014.8 |
| 20260509220340 | 71 | 207 | 0.0 | 0.0 | 0.00 | 0.00 | 0.03 | 24 | 1015.8 |
| 20260509210345 | 70 | 79 | 1.0 | 0.0 | 0.00 | 0.00 | 0.00 | 25 | 1015.7 |
| 20260509200347 | 69 | 34 | 1.0 | 0.0 | 0.00 | 0.00 | 0.00 | 27 | 1016.1 |
| 20260509190346 | 67 | 151 | 2.0 | 0.0 | 0.00 | 0.00 | 0.00 | 28 | 1016.6 |
| 20260509180349 | 63 | 146 | 1.0 | 0.0 | 0.00 | 0.00 | 0.00 | 35 | 1017.4 |